Погода в Кахамарке

Перу     7°09′27″S   78°30′58″W
темп.,
°C
ветер,
м/с
пор.,
м/с
влажн.,
%
обл.,
%
осадки,
мм/ч
давл.,
гПа
погр.,
м
29 ноября, пн
пн2901:00+10ююз1196100 3.6 1016140
04:00+10вюв1195100 2.6 1015116
07:00+11в118597 3.3 1016163
10:00+16зюз216396 0.6 10151053
13:00+15зюз3372100 3.4 1012979
16:00+12зюз348798 2.9 1013574
19:00+10зюз2293100 4.3 1016308
22:00+10зюз1198100 0.1 101950
30 ноября, вт
вт3001:00+9з1196100 0.1 101729
04:00+8с119671 0.0 101611
07:00+10св1184100 0.0 1018103
10:00+14ююз1162100 0.0 1016742
13:00+17юз225490 0.1 10121295
16:00+14зюз447696 1.1 1011772
19:00+10зсз1292100 2.6 1015231
22:00+10с1190100 3.7 1018121
1 декабря, ср
ср101:00+10св128595 3.8 101658
04:00+10всв1184100 0.0 101516
07:00+11в2281100 0.0 1017137
10:00+17ююз125668 0.0 10141380
13:00+14зюз3376100 0.8 1013510
16:00+13зюз3388100 0.8 1012518
19:00+11юз2298100 1.3 1015215
22:00+11зюз119797 0.1 1017198
2 декабря, чт
чт201:00+11з1195100 0.2 1015160
04:00+10зюз119586 0.4 1015133
07:00+11ююз0092100 0.4 1016192
10:00+14ююз1175100 0.1 1016618
13:00+16зюз3270100 2.1 10131013
16:00+11зюз3395100 3.7 1013409
19:00+10юз1198100 6.1 1016211
22:00+10юв1193100 1.8 101729
3 декабря, пт
пт301:00+10в0092100 1.8 101513
04:00+8з019791 0.0 101511
07:00+10всв1189100 0.0 1016113
10:00+15юз216999 0.5 1014955
13:00+14зюз337598 3.0 1012866
16:00+11зюз3396100 2.1 1013397
19:00+10юз2298100 3.2 1015291
22:00+10вюв0194100 0.5 1017135